Deer Park, WA
on Tuesday, December 4, 2012

Tuesday
Previous Day Next Day
Daily Summary
 ActualAverageRecord
Temperature
Mean Temperature °F 27°F  
Max Temperature 48°F 34°F 54°F (2007)
Min Temperature 37°F 21°F 5°F (2013)
Degree Days
Heating Degree Days 22 38  
Month to date heating degree days 90 149  
Since 1 July heating degree days 1827 2152  
Cooling Degree Days 0 0  
Month to date cooling degree days 0 0  
Year to date cooling degree days 232 187  
Moisture
Dew Point 41°F   
Average Humidity 85    
Maximum Humidity 100    
Minimum Humidity 70    
Precipitation
Precipitation 0.53 in 0.09 in 0.53 in (2012)
Month to date precipitation 1.12 0.35  
Year to date precipitation 25.23 19.74  
Wind
Wind Speed 9 mph   
Max Wind Speed 22 mph   
Max Gust Speed 28 mph   
Visibility 7 miles   
Events Rain   

Key: T is trace of precipitation, MM is missing value
Source: NWS Daily Summary
Time(PST)TemperatureDew PointHumidity Pressure Visibility Wind DirectionWind SpeedGust SpeedPrecipitationEvents Conditions
12:53 AM 37.0°F 35.1°F 93% 29.90 in 10.0 miles Calm Calm - N/A   Partly Cloudy
1:53 AM 41.0°F 34.0°F 76% 29.87 in 10.0 miles East 4.6 mph - N/A   Overcast
4:41 AM 41.0°F 35.6°F 81% 29.83 in 8.0 miles South 12.7 mph 24.2 mph 0.02 in Rain Light Rain
4:53 AM 39.9°F 36.0°F 86% 29.86 in 10.0 miles South 13.8 mph - 0.03 in Rain Light Rain
5:50 AM 39.2°F 37.4°F 93% 29.82 in 8.0 miles SSE 6.9 mph - 0.04 in Rain Light Rain
5:53 AM 39.0°F 37.0°F 93% 29.86 in 8.0 miles SSE 6.9 mph - 0.04 in Rain Light Rain
6:16 AM 39.2°F 37.4°F 93% 29.82 in 8.0 miles SE 5.8 mph - 0.01 in Rain Light Rain
6:41 AM 37.4°F 37.4°F 100% 29.83 in 5.0 miles SE 4.6 mph - 0.02 in Rain Light Rain
6:53 AM 37.9°F 37.0°F 97% 29.85 in 4.0 miles ESE 4.6 mph - 0.03 in Rain Light Rain
7:15 AM 37.4°F 37.4°F 100% 29.81 in 3.0 miles ENE 4.6 mph - 0.03 in Rain Rain
7:39 AM 37.4°F 37.4°F 100% 29.82 in 4.0 miles NE 3.5 mph - 0.06 in Rain Rain
7:50 AM 37.4°F 37.4°F 100% 29.82 in 5.0 miles Calm Calm - 0.08 in Rain Rain
7:53 AM 37.9°F 37.9°F 100% 29.86 in 5.0 miles ENE 3.5 mph - 0.08 in Rain Light Rain
8:34 AM 37.4°F 37.4°F 100% 29.82 in 1.8 miles Calm Calm - 0.06 in Rain Rain
8:53 AM 37.9°F 37.9°F 100% 29.86 in 1.2 miles Calm Calm - 0.10 in Rain Rain
9:29 AM 39.2°F 39.2°F 100% 29.82 in 2.5 miles Calm Calm - 0.08 in Rain Light Rain
9:50 AM 39.2°F 39.2°F 100% 29.82 in 6.0 miles Calm Calm - 0.10 in Rain Light Rain
9:53 AM 39.9°F 39.0°F 97% 29.86 in 10.0 miles Calm Calm - 0.10 in Rain Light Rain
10:53 AM 42.1°F 41.0°F 96% 29.84 in 4.0 miles ESE 3.5 mph - 0.01 in Rain Light Rain
11:53 AM 44.1°F 43.0°F 96% 29.82 in 10.0 miles SSE 8.1 mph - 0.01 in   Overcast
12:13 PM 44.6°F 42.8°F 93% 29.79 in 2.5 miles SSE 8.1 mph - 0.01 in Rain Light Rain
12:20 PM 44.6°F 42.8°F 93% 29.79 in 3.0 miles SSE 8.1 mph - 0.01 in Rain Light Rain
12:53 PM 45.0°F 43.0°F 93% 29.80 in 10.0 miles SSE 9.2 mph - 0.01 in   Overcast
1:21 PM 44.6°F 44.6°F 100% 29.77 in 10.0 miles SSE 8.1 mph - 0.01 in   Overcast
1:53 PM 45.0°F 44.1°F 97% 29.79 in 10.0 miles SSE 9.2 mph - 0.01 in   Overcast
2:53 PM 46.9°F 45.0°F 93% 29.80 in 10.0 miles SSE 11.5 mph - N/A   Overcast
3:53 PM 46.9°F 45.0°F 93% 29.80 in 10.0 miles SE 12.7 mph - N/A   Overcast
4:26 PM 46.4°F 44.6°F 93% 29.77 in 10.0 miles SSE 11.5 mph - N/A   Overcast
4:53 PM 46.9°F 44.1°F 90% 29.79 in 10.0 miles SE 12.7 mph - N/A   Overcast
5:27 PM 46.4°F 44.6°F 93% 29.76 in 10.0 miles SSE 16.1 mph - N/A   Overcast
5:53 PM 46.9°F 44.1°F 90% 29.78 in 10.0 miles SSE 12.7 mph - N/A   Overcast
6:53 PM 46.9°F 44.1°F 90% 29.75 in 10.0 miles SSE 11.5 mph - 0.00 in   Overcast
7:14 PM 46.4°F 44.6°F 93% 29.72 in 9.0 miles South 11.5 mph - 0.00 in Rain Light Rain
7:41 PM 46.4°F 44.6°F 93% 29.71 in 10.0 miles SSE 12.7 mph - 0.01 in   Overcast
7:53 PM 46.0°F 45.0°F 96% 29.73 in 5.0 miles SSE 13.8 mph - 0.03 in Rain Rain
8:53 PM 46.9°F 44.1°F 90% 29.72 in 10.0 miles South 15.0 mph 23.0 mph 0.00 in   Overcast
9:53 PM 48.0°F 45.0°F 89% 29.72 in 10.0 miles South 16.1 mph - 0.00 in Rain Light Rain
10:53 PM 48.0°F 46.0°F 93% 29.71 in 10.0 miles SSW 18.4 mph 27.6 mph 0.05 in   Overcast
11:53 PM 46.9°F 46.0°F 97% 29.71 in 5.0 miles SSW 15.0 mph - 0.03 in Rain Light Rain
Moon Phase
Dec. 04 Dec. 06 Dec. 13 Dec. 20 Dec. 28
Sunrise:07:22 AM (PST) Moon Rise:10:07 PM (PST)12/4
Sunset:03:57 PM (PST) Moon Set:11:03 AM (PST)12/4

Copyright © 2014 The Weather Underground, Inc.